Date String (YYYY-MM-DD hh:mm:ss) UTC,Instrument flags,Ambient pressure (hPa),Sample flow (lpm),Bypass flow (lpm),Sample temperature (°C),Ambient temperature (°C),ASC tube jacket temperature (°C),LED temperature (°C),Box temperature (°C),Sample RH (%),Span deviation,Mass concentration (μg/m³),Mass concentration (μg/m³),Mass concentration (μg/m³)
DateTimeUTC,F1_M11,P_M11,Q1_M11,Q2_M11,T1_M11,T2_M11,T3_M11,T4_M11,T5_M11,U1_M11,ZSPAN_M11,X0_M11,X2_M11,X1_M11
2022-10-01 00:00:00,,0825.4,4.99,0.00,29.9,28.8,00.0,38.6,31.8,24.0,0000.0,0004.22,0001.78,0001.20
2022-10-01 00:01:00,,0825.5,4.99,0.00,29.9,28.8,00.0,38.6,31.8,23.4,0000.0,0004.17,0001.76,0001.21
2022-10-01 00:02:00,,0825.4,5.00,0.00,29.9,28.8,00.0,38.6,31.8,23.8,0000.0,0003.99,0001.70,0001.21
2022-10-01 00:03:00,,0825.4,4.99,0.00,30.0,28.8,00.0,38.6,31.9,23.8,0000.0,0003.82,0001.65,0001.20
2022-10-01 00:04:00,,0825.4,5.02,0.00,30.0,28.8,00.0,38.6,31.9,24.7,0000.0,0003.68,0001.62,0001.20
2022-10-01 00:05:00,,0825.4,4.99,0.00,30.0,28.8,00.0,38.6,31.9,24.7,0000.0,0003.63,0001.64,0001.21
2022-10-01 00:06:00,,0825.5,5.01,0.00,30.0,28.8,00.0,38.7,31.9,25.2,0000.0,0003.29,0001.62,0001.21
2022-10-01 00:07:00,,0825.5,4.99,0.00,30.0,28.8,00.0,38.7,31.9,25.3,0000.0,0003.02,0001.66,0001.23
2022-10-01 00:08:00,,0825.5,5.01,0.00,30.0,28.8,00.0,38.7,31.9,24.6,0000.0,0002.89,0001.68,0001.24
2022-10-01 00:09:00,,0825.5,5.00,0.00,30.0,28.9,00.0,38.7,32.0,24.2,0000.0,0002.77,0001.65,0001.24
2022-10-01 00:10:00,,0825.5,4.99,0.00,30.1,28.9,00.0,38.7,32.0,23.6,0000.0,0002.76,0001.60,0001.24
2022-10-01 00:11:00,,0825.5,5.01,0.00,30.1,28.9,00.0,38.7,32.0,24.1,0000.0,0002.80,0001.64,0001.24
2022-10-01 00:12:00,,0825.6,5.01,0.00,30.1,28.9,00.0,38.8,32.0,24.0,0000.0,0002.97,0001.69,0001.24
2022-10-01 00:13:00,,0825.6,4.99,0.00,30.1,28.3,00.0,38.8,32.0,23.7,0000.0,0003.14,0001.74,0001.24
2022-10-01 00:14:00,,0825.6,4.99,0.00,30.1,26.8,00.0,38.7,31.9,23.7,0000.0,0003.21,0001.76,0001.24
2022-10-01 00:15:00,,0825.6,5.00,0.00,30.0,26.4,00.0,38.7,31.7,23.9,0000.0,0003.25,0001.77,0001.23
2022-10-01 00:16:00,,0825.6,5.00,0.00,29.9,26.6,00.0,38.6,31.6,24.1,0000.0,0003.62,0001.71,0001.22
2022-10-01 00:17:00,,0825.6,5.00,0.00,29.8,26.9,00.0,38.6,31.5,23.7,0000.0,0004.33,0001.72,0001.23
2022-10-01 00:18:00,,0825.6,4.99,0.00,29.8,27.2,00.0,38.6,31.5,23.6,0000.0,0004.37,0001.70,0001.23
2022-10-01 00:19:00,,0825.7,5.01,0.00,29.7,27.5,00.0,38.5,31.5,23.9,0000.0,0004.52,0001.72,0001.23
2022-10-01 00:20:00,,0825.8,5.00,0.00,29.7,27.7,00.0,38.5,31.5,24.0,0000.0,0004.59,0001.73,0001.22
2022-10-01 00:21:00,,0826.1,5.00,0.00,29.7,27.8,00.0,38.5,31.5,24.3,0000.0,0004.60,0001.77,0001.22
2022-10-01 00:22:00,,0826.2,4.99,0.00,29.7,28.0,00.0,38.5,31.5,24.8,0000.0,0004.44,0001.77,0001.22
2022-10-01 00:23:00,,0826.2,4.99,0.00,29.7,28.1,00.0,38.5,31.5,25.2,0000.0,0004.35,0001.72,0001.22
2022-10-01 00:24:00,,0826.0,5.00,0.00,29.7,28.1,00.0,38.5,31.6,25.3,0000.0,0004.18,0001.67,0001.21
2022-10-01 00:25:00,,0825.9,5.02,0.00,29.7,28.2,00.0,38.5,31.6,25.3,0000.0,0004.22,0001.69,0001.22
2022-10-01 00:26:00,,0825.8,4.99,0.00,29.7,28.3,00.0,38.5,31.6,25.7,0000.0,0004.25,0001.70,0001.23
2022-10-01 00:27:00,,0825.9,4.99,0.00,29.7,28.3,00.0,38.5,31.6,26.0,0000.0,0004.15,0001.77,0001.25
2022-10-01 00:28:00,,0825.9,5.01,0.00,29.7,28.4,00.0,38.5,31.6,26.0,0000.0,0003.36,0001.76,0001.24
2022-10-01 00:29:00,,0825.9,5.01,0.00,29.7,28.3,00.0,38.5,31.6,26.3,0000.0,0003.26,0001.71,0001.23
2022-10-01 00:30:00,,0825.9,4.99,0.00,29.8,28.4,00.0,38.5,31.6,26.0,0000.0,0003.14,0001.68,0001.23
2022-10-01 00:31:00,,0825.9,5.00,0.00,29.8,28.4,00.0,38.5,31.7,26.1,0000.0,0003.52,0001.75,0001.23
2022-10-01 00:32:00,,0826.0,5.01,0.00,29.8,28.4,00.0,38.5,31.7,26.6,0000.0,0003.58,0001.75,0001.23
2022-10-01 00:33:00,,0825.9,5.00,0.00,29.8,28.4,00.0,38.5,31.7,25.7,0000.0,0003.46,0001.73,0001.24
2022-10-01 00:34:00,,0826.0,4.99,0.00,29.8,28.5,00.0,38.5,31.7,25.3,0000.0,0003.53,0001.78,0001.24
2022-10-01 00:35:00,,0826.0,5.00,0.00,29.8,28.5,00.0,38.5,31.7,25.5,0000.0,0003.62,0001.82,0001.25
2022-10-01 00:36:00,,0826.0,5.00,0.00,29.8,28.5,00.0,38.5,31.7,25.7,0000.0,0003.67,0001.84,0001.25
2022-10-01 00:37:00,,0826.0,5.00,0.00,29.8,28.5,00.0,38.5,31.8,25.7,0000.0,0003.67,0001.84,0001.23
2022-10-01 00:38:00,,0826.0,4.99,0.00,29.9,28.5,00.0,38.6,31.7,25.9,0000.0,0003.60,0001.82,0001.22
2022-10-01 00:39:00,,0826.1,5.00,0.00,29.9,28.6,00.0,38.6,31.8,26.1,0000.0,0003.79,0001.84,0001.21
2022-10-01 00:40:00,,0826.1,5.01,0.00,29.9,28.6,00.0,38.6,31.8,26.2,0000.0,0004.36,0001.86,0001.20
2022-10-01 00:41:00,,0826.1,5.00,0.00,29.9,28.6,00.0,38.6,31.8,26.2,0000.0,0004.30,0001.84,0001.20
2022-10-01 00:42:00,,0826.2,4.98,0.00,29.9,28.7,00.0,38.6,31.8,26.4,0000.0,0003.91,0001.78,0001.20
2022-10-01 00:43:00,,0826.2,5.00,0.00,29.9,28.7,00.0,38.6,31.8,26.6,0000.0,0003.80,0001.77,0001.21
2022-10-01 00:44:00,,0826.2,5.00,0.00,30.0,28.7,00.0,38.6,31.9,26.7,0000.0,0003.84,0001.80,0001.22
2022-10-01 00:45:00,,0826.2,4.99,0.00,30.0,28.7,00.0,38.7,31.9,26.6,0000.0,0003.86,0001.82,0001.23
2022-10-01 00:46:00,,0826.1,4.99,0.00,30.0,28.8,00.0,38.7,31.9,26.6,0000.0,0003.89,0001.81,0001.23
2022-10-01 00:47:00,,0826.2,5.01,0.00,30.0,28.8,00.0,38.7,31.9,26.6,0000.0,0004.95,0001.79,0001.25
2022-10-01 00:48:00,,0826.2,5.00,0.00,30.0,28.8,00.0,38.7,31.9,26.7,0000.0,0005.46,0001.78,0001.27
2022-10-01 00:49:00,,0826.2,4.99,0.00,30.0,28.8,00.0,38.7,31.9,26.8,0000.0,0005.50,0001.81,0001.28
2022-10-01 00:50:00,,0826.2,5.01,0.00,30.1,28.8,00.0,38.7,32.0,26.7,0000.0,0005.18,0001.80,0001.29
2022-10-01 00:51:00,,0826.2,5.00,0.00,30.1,28.9,00.0,38.8,32.0,26.5,0000.0,0004.72,0001.80,0001.30
2022-10-01 00:52:00,,0826.4,4.99,0.00,30.1,28.8,00.0,38.8,32.0,26.4,0000.0,0004.89,0001.86,0001.30
2022-10-01 00:53:00,,0826.2,5.00,0.00,30.1,27.5,00.0,38.7,31.9,26.4,0000.0,0004.93,0001.89,0001.32
2022-10-01 00:54:00,,0826.2,5.01,0.00,30.0,26.5,00.0,38.7,31.8,26.5,0000.0,0004.92,0001.91,0001.32
2022-10-01 00:55:00,,0826.3,5.00,0.00,30.0,26.4,00.0,38.6,31.6,26.8,0000.0,0004.88,0001.89,0001.32
2022-10-01 00:56:00,,0826.2,5.00,0.00,29.8,26.7,00.0,38.6,31.5,26.9,0000.0,0005.39,0001.92,0001.32
2022-10-01 00:57:00,,0826.2,5.00,0.00,29.8,27.0,00.0,38.6,31.5,26.8,0000.0,0006.28,0001.94,0001.32
2022-10-01 00:58:00,,0826.2,5.01,0.00,29.8,27.3,00.0,38.5,31.5,26.8,0000.0,0005.32,0001.97,0001.34
2022-10-01 00:59:00,,0826.2,5.01,0.00,29.7,27.6,00.0,38.5,31.5,27.1,0000.0,0004.78,0002.00,0001.34
